Printer-friendly version

IAU Minor Planet Center

Minor Planet Center

MPEC 2007-A06 : COMET P/2006 U5 (CHRISTENSEN)

The following Minor Planet Electronic Circular may be linked-to from your own Web pages, but must not otherwise be redistributed electronically.


Read MPEC 2007-A05 Read MPEC 2007-A07


M.P.E.C. 2007-A06                                Issued 2007 Jan. 5, 02:14 UT

     The Minor Planet Electronic Circulars contain information on unusual
         minor planets and routine data on comets.  They are published
   on behalf of Commission 20 of the International Astronomical Union by the
          Minor Planet Center, Smithsonian Astrophysical Observatory,
                          Cambridge, MA 02138, U.S.A.

             Prepared using the Tamkin Foundation Computer Network

                              MPC@CFA.HARVARD.EDU
          URL http://cfa-www.harvard.edu/iau/mpc.html  ISSN 1523-6714

                         COMET P/2006 U5 (CHRISTENSEN)

Observations:
    PK06U050  C2006 12 27.57599 06 31 13.54 +29 10 50.4                 EA006D88
    PK06U050  C2006 12 27.57919 06 31 13.38 +29 10 51.0                 EA006D88
    PK06U050  C2006 12 27.58237 06 31 13.15 +29 10 51.6          16.7 T EA006D88
    PK06U050  C2006 12 29.88461 06 29 14.04 +29 12 09.2          16.9 N EA006J76
    PK06U050  C2006 12 29.88679 06 29 13.89 +29 12 09.4          16.8 N EA006J76
    PK06U050  C2006 12 29.88895 06 29 13.74 +29 12 09.4          16.5 N EA006J76
    PK06U050  C2006 12 29.93875 06 29 10.97 +29 12 10.5          16.8 N EA006939
    PK06U050  C2006 12 29.94981 06 29 10.39 +29 12 11.1          16.8 N EA006939
    PK06U050  C2006 12 29.95639 06 29 10.12 +29 12 10.5          16.6 N EA006A10
    PK06U050  C2006 12 29.96022 06 29 09.95 +29 12 11.8          16.8 N EA006A10
    PK06U050  C2006 12 29.96088 06 29 09.87 +29 12 11.3          16.8 N EA006939
    PK06U050  C2006 12 29.96440 06 29 09.69 +29 12 11.8          16.8 N EA006A10
    PK06U050  C2006 12 29.96591 06 29 09.62 +29 12 11.6          16.8 N EA006A10
    PK06U050  C2006 12 30.03655 06 29 05.80 +29 12 13.0          17.4 N EA006232
    PK06U050  C2006 12 30.04271 06 29 05.46 +29 12 13.2          17.6 N EA006232
    PK06U050  C2006 12 30.04886 06 29 05.11 +29 12 13.6          17.4 N EA006232
    PK06U050  C2006 12 30.89476 06 28 21.65 +29 12 34.1          17.0 N EA006J76
    PK06U050  C2006 12 30.89694 06 28 21.52 +29 12 34.3          17.0 N EA006J76
    PK06U050  C2006 12 30.89983 06 28 21.36 +29 12 34.2          16.9 N EA006J76
    PK06U050  C2006 12 30.94431 06 28 18.96 +29 12 34.1          17.1 N EA006J67
    PK06U050  C2006 12 30.94743 06 28 18.83 +29 12 34.6          17.0 N EA006J67
    PK06U050  C2006 12 30.95061 06 28 18.63 +29 12 34.9          17.0 N EA006J67
    PK06U050  C2006 12 30.98936 06 28 16.54 +29 12 36.1          17.5 N EA006170
    PK06U050  C2006 12 30.99095 06 28 16.44 +29 12 36.2          17.4 N EA006170
    PK06U050  C2006 12 31.01713 06 28 15.07 +29 12 36.6          17.5 N EA006170
    PK06U050  C2006 12 31.21192 06 28 05.34 +29 12 41.5          16.2 T EA006673
    PK06U050  C2006 12 31.21748 06 28 05.03 +29 12 41.6                 EA006673
    PK06U050  C2006 12 31.22303 06 28 04.72 +29 12 41.8                 EA006673
    PK06U050  C2006 12 31.22859 06 28 04.42 +29 12 41.9                 EA006673

Observer details:
170 Observatorio de Begues.  Observer J. Manteca.  0.36-m f/6.3
    Schmidt-Cassegrain + CCD.
232 Masquefa Observatory.  Observer E. Reina.  0.25-m f/3.3 Schmidt-Cassegrain
    + CCD.
673 Table Mountain Observatory, Wrightwood.  Observer J. Young.  0.61-m f/16
    Cassegrain + CCD.
939 Observatorio Rodeno.  Observer J. Castellano.  0.20-m f/10
    Schmidt-Cassegrain + CCD.
A10 Observatori Astronomic de Corbera.  Observers J. Barcelo, M. Casao,
    F. Morillas, C. Rodriguez.  Measurer J. Barcelo.  0.30-m f/5.0 Newtonian
    reflector + CCD.
D88 Hiratsuka.  Observer Y. Sugiyama.  0.25-m f/5.0 reflector + CCD.
J67 Observatorio La Puebla de Vallbona.  Observer E. Arce.  0.25-m f/4.7
    Schmidt-Cassegrain + CCD.
J76 La Murta.  Observers S. Pastor, J. A. Reyes.  0.40-m f/6.3
    Schmidt-Cassegrain + CCD.

Orbital elements:
    P/2006 U5 (Christensen)
Epoch 2007 Jan. 20.0 TT = JDT 2454120.5
T 2007 Jan. 18.85538 TT                                 MPC
q   2.3259671            (2000.0)            P               Q
n   0.14860617     Peri.   98.36973     -0.23274136     -0.97252413
a   3.5300280      Node     5.09808     +0.86708413     -0.20997764
e   0.3410910      Incl.    3.43042     +0.44045042     -0.10052961
P   6.63
Residuals in seconds of arc
061027 703  0.6-  0.2-    061117 349  0.4+  0.5-    061220 644  0.3-  0.1-
061027 703  0.2-  0.1+    061117 349  0.5+  0.4-    061220 644  0.1+  0.0
061027 703  0.6-  0.8+    061117 J97  0.3-  0.9-    061220 644  0.3+  0.2-
061027 703  0.3+  0.7+    061118 232  0.2-  0.2-    061221 644  0.2+  0.2-
061028 118  1.0+  0.1-    061118 232  0.0   0.3-    061221 644  0.1+  0.0
061028 118  0.1+  0.5+    061118 232  0.5-  0.3+    061221 644  0.4+  0.0
061028 448  0.0   0.2-    061123 J70 (3.0+  5.2-)   061221 J70 (2.9-  0.5-)
061028 448  0.7-  0.2-    061123 J70 (3.5+  5.5-)   061221 J70 (2.2-  0.4-)
061028 448  0.1-  0.3-    061129 704  1.1+  1.7-    061221 J70  0.8-  0.6-
061028 G96  1.0-  0.2-    061129 704  1.8+  0.5+    061221 J70  0.5-  0.1-
061028 703  0.4+  0.2+    061129 704  0.1-  0.3+    061221 J70  0.1+  0.1-
061028 703  1.1-  0.7+    061129 704  1.0-  1.1+    061221 J70  0.4+  0.5-
061028 G96  0.7+  0.5-    061129 704  1.9-  0.4-    061221 J70  0.7+  0.8-
061028 703  0.5-  0.6+    061130 J97  1.1+  0.8+    061221 J70  0.7+  0.1-
061028 G96  0.3-  0.2-    061201 349  0.3+  0.3+    061221 J70  0.6+  1.5-
061028 703  1.3-  0.9+    061201 349  0.2+  0.5+    061222 130  1.1+  0.3+
061028 734  0.5+  0.4-    061201 349  0.2+  0.4+    061222 130  0.6+  0.5+
061028 G96  0.0   0.3-    061208 J97  1.5-  0.6-    061222 130  0.2-  0.0
061028 734  0.1-  0.1+    061208 J97  0.7+  1.8-    061222 130  0.1-  0.0
061028 734  0.5+  0.3-    061208 J70 (6.9+  2.7-)   061224 691 (1.1-  2.5+)
061029 473  0.6+  0.3+    061210 473  0.2-  0.2+    061224 691  1.1-  0.6-
061029 473  0.0   0.2+    061210 473  0.1-  0.1-    061224 691  1.7-  0.6-
061029 473  0.5-  0.5+    061210 473  0.4-  1.0-    061225 213  0.0   0.2-
061029 703  1.0-  0.1+    061211 118  0.0   0.1+    061225 213  0.3+  0.5-
061029 703  0.3-  0.6+    061211 118  0.2+  0.1-    061225 213  0.6+  0.1-
061029 703  0.6+  0.5+    061211 118  0.3+  0.0     061225 J97  0.0   0.1+
061029 703  0.7+  0.8+    061211 118  0.4+  0.0     061225 A24  0.4-  1.3-
061029 734  0.6-  0.1-    061211 118  0.7+  0.1-    061225 A24  0.1+  1.6-
061029 734  0.5-  0.2+    061211 691  1.1-  0.1+    061225 J97  1.2+  0.5+
061029 734  0.3-  0.1-    061211 691  1.0-  0.1-    061226 A24  0.1+  0.4+
061029 734  0.2+  0.1-    061211 691 (3.3-  0.6+)   061226 A24  0.4+  0.3+
061029 G96  0.4+  0.1-    061211 703  0.1+  0.1-    061226 157  0.2+  0.1+
061029 673  1.0+  0.2-    061211 703  0.8+  0.2+    061226 157  0.1-  0.1-
061029 H55 (2.0-  0.1+)   061211 703  0.0   0.2-    061226 118  0.3+  0.5+
061029 673  1.1+  0.1-    061211 561  1.2+  0.0     061226 118  0.3+  0.5+
061029 448  0.3+  0.1+    061211 561  0.7+  0.2+    061226 118  0.2+  0.4+
061029 G96  0.4+  0.1-    061211 561  1.0+  0.3+    061226 118  0.1+  0.6+
061029 673  0.6+  0.2-    061211 561  0.2-  1.7+    061226 A24  0.3-  1.0-
061029 448  0.1-  0.1+    061213 349  0.1+  0.2+    061226 A24  1.5+  1.0+
061029 G96  0.9+  0.0     061213 349  0.2-  0.2+    061227 A24 (1.1-  2.8-)
061029 H55 (2.1-  0.4-)   061213 349  0.2-  0.1-    061227 A24  0.1+  0.2+
061029 673  1.0+  0.3+    061213 198  0.2+  0.0     061227 D88  0.2+  0.3-
061029 448  0.0   0.1-    061213 198  0.4+  0.0     061227 D88  0.4+  0.2+
061029 G96  0.7+  0.2-    061213 198  0.4+  0.1+    061227 D88  0.4-  0.6+
061029 703  0.5-  1.0+    061213 198  0.5+  0.2+    061227 J70 (0.8+  4.5+)
061029 703  0.9-  0.6+    061213 198  0.6+  0.1+    061227 J70  1.7-  0.7+
061029 704  1.5+  0.9+    061214 561  0.9+  0.1+    061227 J70 (3.3-  0.9+)
061029 703  1.1-  0.1-    061214 561  0.5+  0.2+    061227 J70 (3.1-  0.8+)
061029 704  0.4-  0.5+    061214 561  0.6+  0.1-    061227 J70 (2.5-  1.2+)
061029 704  1.2+  0.5+    061214 204  0.3+  0.1-    061229 J76  0.6+  0.5+
061029 704  1.4+  0.4-    061214 204  0.3-  0.3+    061229 J76  0.2+  0.6+
061030 850  0.8-  0.9-    061214 G96  0.1-  0.3-    061229 J76  0.2-  0.5+
061030 850  0.0   0.3-    061214 G96  0.2-  0.2-    061229 939  1.2-  0.1+
061030 850  0.2-  0.4-    061214 G96  0.4-  0.2-    061229 939  1.0-  0.3+
061030 850  1.2-  0.3+    061214 G96  0.4+  0.1-    061229 A10  0.4+  0.4-
061030 850  0.4-  0.1-    061214 246  0.3-  0.4-    061229 A10  0.9+  0.8+
061030 850 (0.3+  2.5+)   061214 246  0.0   0.4-    061229 939  0.1+  0.1+
061030 G96  0.8+  0.1-    061214 246  0.1-  0.7-    061229 A10  0.4+  0.7+
061030 G96  0.8+  0.0     061214 246  0.0   0.4-    061229 A10  0.6+  0.4+
061030 G96  0.9+  0.1+    061214 246  0.1-  0.5-    061230 232  0.6+  0.0
061030 G96  0.9+  0.3+    061214 215  0.1-  0.1-    061230 232  0.5+  0.1+
061031 349  1.5-  0.8-    061214 215  0.0   0.2-    061230 232  0.3+  0.4+
061031 349  1.6-  0.6-    061214 215  0.1-  0.2-    061230 J76  0.1-  0.4+
061031 349  1.6-  0.6-    061217 170  0.1+  0.0     061230 J76  0.3-  0.5+
061031 585  0.3-  0.1-    061217 170  0.2+  0.1-    061230 J76  0.4-  0.3+
061031 585  0.5-  0.5-    061217 170  0.0   0.3-    061230 J67  0.3-  0.9-
061031 585  0.4-  0.5-    061217 A32  0.5-  0.0     061230 J67  0.2+  0.4-
061104 204  0.4-  0.4-    061217 A32  0.2+  0.8+    061230 J67  0.2-  0.2-
061105 204  0.2-  0.1-    061217 A32  0.6-  1.0-    061230 170  0.1+  0.3+
061114 213  0.1+  0.0     061217 A32  0.8-  0.7-    061230 170  0.1-  0.3+
061115 213  0.8+  0.2-    061218 704  1.0+  0.3-    061231 170  0.5+  0.2+
061115 213  0.9+  0.0     061218 704 (2.4+  0.1+)   061231 673  0.6+  0.9+
061115 372  1.1+  0.6+    061218 704 (1.5+  2.8+)   061231 673  0.5+  0.8+
061116 215  0.2+  0.3-    061218 704 (1.1+  2.7+)   061231 673  0.3+  0.9+
061117 372  0.0   0.8+    061218 704  1.0+  1.6+    061231 673  0.3+  0.8+

Brian G. Marsden             (C) Copyright 2007 MPC           M.P.E.C. 2007-A06

Read MPEC 2007-A05 Read MPEC 2007-A07


Our Web policy. Index to the CBAT/MPC/ICQ pages.


Valid HTML 4.01!